Frederick, OK

7:59 PM CDT on April 29, 2017 (GMT -0500)
Frederick Municipal

Weather History for KFDR - March, 2013

Change the Weather History Date:

Sunday, March 31, 2013

  Actual Average (KLTS) Record (KLTS)
Temperature  
Mean Temperature 64 °F -  
Max Temperature 73 °F 68 °F 88 °F (2015)
Min Temperature 54 °F 44 °F 32 °F (2003)
Degree Days  
Heating Degree Days 2    
Growing Degree Days 14 (Base 50)    
Moisture  
Dew Point 46 °F    
Average Humidity 56    
Maximum Humidity 90    
Minimum Humidity 30    
Precipitation  
Precipitation 0.00 in - - ()
Sea Level Pressure  
Sea Level Pressure 29.92 in    
Wind  
Wind Speed 12 mph (NE)    
Max Wind Speed 28 mph    
Max Gust Speed 45 mph    
Visibility 10 miles    
Events      
Averages and records for this station are not official NWS values.
T = Trace of Precipitation, MM = Missing Value Source: NWS Daily Summary

Daily Weather History Graph

Daily Weather History Graph

Search for Another Location

Airport or City:

Trip Planner

Search our weather history database for the weather conditions in past years. The results will help you decide how hot, cold, wet, or windy it might be!

Date:

Astronomy

Mar. 31, 2013 Rise Set
Actual Time 7:24 AM CDT 7:56 PM CDT
Civil Twilight 6:58 AM CDT 8:21 PM CDT
Nautical Twilight 6:29 AM CDT 8:51 PM CDT
Astronomical Twilight 5:58 AM CDT 9:21 PM CDT
Moon No Moon Rise 10:24 AM CDT (3/31)
Length of Visible Light 13h 22m
Length of Day
12h 32m
Waning Gibbous, 77% of the Moon is Illuminated
Mar 31
Waning Gibbous
Apr 2
Last Quarter
Apr 10
New
Apr 18
First Quarter
Apr 25
Full

Hourly Weather History & Observations

Time (CDT) Temp. Dew Point Humidity Pressure Visibility Wind Dir Wind Speed Gust Speed Precip Events Conditions
12:53 AM 64.9 °F 59.0 °F 81% 29.80 in 10.0 mi SE 9.2 mph - N/A   Clear
1:53 AM 63.0 °F 57.9 °F 84% 29.80 in 10.0 mi SE 6.9 mph - N/A   Clear
2:53 AM 60.1 °F 57.0 °F 90% 29.79 in 10.0 mi NE 6.9 mph - N/A   Clear
3:53 AM 60.1 °F 57.0 °F 90% 29.80 in 10.0 mi NNE 13.8 mph - N/A   Clear
4:53 AM 62.1 °F 53.1 °F 72% 29.84 in 10.0 mi NNE 24.2 mph 34.5 mph N/A   Partly Cloudy
5:53 AM 57.0 °F 45.0 °F 64% 29.88 in 10.0 mi NNE 27.6 mph 44.9 mph N/A   Partly Cloudy
6:53 AM 57.0 °F 45.0 °F 64% 29.89 in 10.0 mi NNE 26.5 mph 44.9 mph N/A   Clear
7:53 AM 57.0 °F 46.9 °F 69% 29.92 in 10.0 mi North 15.0 mph - N/A   Mostly Cloudy
8:53 AM 57.9 °F 46.9 °F 67% 29.91 in 10.0 mi NE 18.4 mph 29.9 mph N/A   Clear
9:53 AM 63.0 °F 46.0 °F 54% 29.95 in 10.0 mi ESE 5.8 mph - N/A   Clear
10:53 AM 66.0 °F 45.0 °F 47% 29.97 in 10.0 mi ENE 16.1 mph 20.7 mph N/A   Clear
11:53 AM 64.9 °F 43.0 °F 45% 30.01 in 10.0 mi NE 16.1 mph 24.2 mph N/A   Scattered Clouds
12:53 PM 66.9 °F 44.1 °F 44% 30.02 in 10.0 mi NE 9.2 mph - N/A   Clear
1:53 PM 69.1 °F 44.1 °F 40% 30.00 in 10.0 mi East 9.2 mph - N/A   Partly Cloudy
2:53 PM 71.1 °F 42.1 °F 35% 29.99 in 10.0 mi North 9.2 mph - N/A   Clear
3:53 PM 72.0 °F 41.0 °F 33% 29.95 in 10.0 mi North 9.2 mph - N/A   Clear
4:53 PM 72.0 °F 39.0 °F 30% 29.93 in 10.0 mi North 6.9 mph 18.4 mph N/A   Clear
5:53 PM 71.1 °F 39.0 °F 31% 29.92 in 10.0 mi NW 4.6 mph - N/A   Clear
6:53 PM 71.1 °F 37.9 °F 30% 29.92 in 10.0 mi North 5.8 mph - N/A   Clear
7:53 PM 64.9 °F 39.9 °F 40% 29.93 in 10.0 mi North 6.9 mph - N/A   Clear
8:53 PM 60.1 °F 39.0 °F 46% 29.94 in 10.0 mi North 4.6 mph - N/A   Clear
9:53 PM 55.9 °F 41.0 °F 57% 29.96 in 10.0 mi East 6.9 mph - N/A   Clear
10:53 PM 55.0 °F 42.1 °F 62% 29.97 in 10.0 mi SE 5.8 mph - N/A   Clear
11:53 PM 54.0 °F 42.1 °F 64% 29.97 in 10.0 mi ESE 5.8 mph - N/A   Clear